Tracking 19709 objects as of 18-Jun-2019
HD Live streaming from Space Station
objects crossing your sky now

COSMOS 994

Track COSMOS 994 now!
10-day predictions
COSMOS 994 is classified as:


NORAD ID: 10731
Int'l Code: 1978-028A
Perigee: 978.2 km
Apogee: 1,012.3 km
Inclination: 82.9 °
Period: 104.9 minutes
Semi major axis: 7366 km
RCS: 2.0708 m2 (large)
Launch date: March 15, 1978
Source: Commonwealth of Independent States (former USSR) (CIS)
Launch site: PLESETSK MISSILE AND SPACE COMPLEX (PKMTR)
aabbcc
Your satellite tracking list
Your tracking list is empty




NASA's NSSDC Master Catalog

Two Line Element Set (TLE):
1 10731U 78028A   19168.90129824 +.00000024 +00000-0 +93381-5 0  9992
2 10731 082.9319 105.9419 0023174 171.5055 249.0254 13.73204027066957
Source of the keplerian elements: AFSPC